Regional Weather Roundup
Issued by NWS Little Rock, AR

Home | Current Version | Previous Version | Graphics & Text | Print | Product List | Glossary On
Versions: 1 2 3 4 5 6 7 8 9 10 11 12 13 14 15 16 17 18 19 20 21 22 23 24 25 26 27
000
ASUS44 KLZK 310505
RWRLZK

WEATHER ROUNDUP FOR ARKANSAS
NATIONAL WEATHER SERVICE LITTLE ROCK AR
1200 AM CDT FRI OCT 31 2014

NOTE: "FAIR" INDICATES FEW OR NO CLOUDS BELOW 12,000 FEET WITH NO
SIGNIFICANT WEATHER AND/OR OBSTRUCTIONS TO VISIBILITY.

ARZ001-003-010-029-310600-
NORTHWEST ARKANSAS

CITY           SKY/WX    TMP DP  RH WIND       PRES   REMARKS
FAYETTEVILLE   CLEAR     52  39  61 N3        30.14R
FORT SMITH     CLEAR     52  45  77 W9        30.12R
HARRISON       CLEAR     53  40  61 NW8       30.10R
BENTONVILLE    CLEAR     54  37  54 N8        30.14R
ROGERS         CLEAR     54  39  57 NW8       30.14S
SILOAM SPGS    CLEAR     48  36  61 N7        30.16R
HIGHFILL       CLEAR     53  40  61 N12       30.14R
$$

ARZ004-005-016-310600-
NORTH CENTRAL ARKANSAS

CITY           SKY/WX    TMP DP  RH WIND       PRES   REMARKS
BATESVILLE     CLEAR     52  45  76 W6        30.02S
FLIPPIN        CLEAR     55  37  50 NW8       30.07R
MTN HOME       CLEAR     53  42  66 NW6       30.06R
$$

ARZ040-041-310600-
WEST CENTRAL ARKANSAS

CITY           SKY/WX    TMP DP  RH WIND       PRES   REMARKS
MENA           CLEAR     55  43  62 CALM      30.12S
MOUNT IDA      CLEAR     49  47  93 W3        30.07S
$$

ARZ009-017-025-026-028-310600-
NORTHEAST ARKANSAS

CITY           SKY/WX    TMP DP  RH WIND       PRES   REMARKS
CORNING        FAIR      50  46  87 NE7       30.01F
JONESBORO      CLEAR     50  48  93 CALM      29.99F
NEWPORT        CLEAR     53  48  83 W14       30.02R
WALNUT RIDGE   CLEAR     48  45  87 NW6       29.99S
BLYTHEVILLE    PTCLDY    55  50  83 S6        29.99F
$$

ARZ022-023-033-042-044-310600-
CENTRAL ARKANSAS

CITY           SKY/WX    TMP DP  RH WIND       PRES   REMARKS
LITTLE ROCK    CLEAR     54  47  77 W8        30.05S
N LITTLE ROCK  CLEAR     57  51  78 W6        30.05S
JACKSONVILLE   CLEAR     53  49  84 W6        30.04S
SEARCY         CLEAR     47  47 100 CALM      30.04S FOG
HOT SPRINGS    CLEAR     50  47  89 CALM      30.08S
RUSSELLVILLE   CLEAR     48  46  93 CALM      30.07S
$$

ARZ036-310600-
EAST ARKANSAS

CITY           SKY/WX    TMP DP  RH WIND       PRES   REMARKS
WEST MEMPHIS   CLEAR     58  50  75 SW6       29.98F
$$

ARZ050-053-066-070-073-310600-
SOUTHWEST ARKANSAS

CITY           SKY/WX    TMP DP  RH WIND       PRES   REMARKS
ARKADELPHIA    FAIR      51  51 100 CALM      30.08S
CAMDEN         CLEAR     48  46  93 CALM      30.07S FOG
TEXARKANA      CLEAR     54  47  77 W5        30.10R
DE QUEEN       FOG       47  46  97 CALM      30.10R VSB 3/4
$$

ARZ056-057-069-310600-
SOUTHEAST ARKANSAS

CITY           SKY/WX    TMP DP  RH WIND       PRES   REMARKS
PINE BLUFF     CLEAR     56  48  74 W5        30.04F
STUTTGART      PTCLDY    55  48  76 W9        30.03S
MONTICELLO     PTCLDY    58  48  69 W6        30.04F

$$





USA.gov is the U.S. government's official web portal to all federal, state and local government web resources and services.